Theta_e
318 319 319 319 319 318 317 317 318 318 317 317 316 315 314 313 312 312 312 311 311 310 310 310 310 311 310 310 310 309 308 308 308 308 309 309 308 307 307 307 307 306 306 306 305 305 305 305 305 305 304 304 303 303 302 302 302 302 302 302 301 301 301 301 300 300 300 299 300
318 318 319 319 319 318 317 317 317 317 317 317 316 316 315 313 313 312 312 312 311 311 311 310 310 310 310 310 310 309 309 308 308 308 308 308 308 307 307 307 307 306 306 305 305 305 305 305 304 304 304 304 303 303 303 303 302 302 302 301 301 301 301 301 300 300 300 300 300
317 317 318 318 318 317 317 316 316 316 316 316 316 316 315 314 313 313 312 312 312 311 311 310 310 310 310 309 310 309 309 308 308 308 308 308 307 307 307 307 307 307 306 306 306 305 305 304 304 304 304 304 303 303 303 302 303 302 301 301 301 301 301 301 300 300 300 300 300
316 317 317 317 317 316 316 316 315 315 315 316 316 316 315 315 314 313 312 312 312 311 311 310 310 310 310 309 309 309 309 309 309 308 308 308 307 308 308 307 307 307 306 306 305 305 305 304 304 304 304 303 302 302 302 303 302 302 302 301 301 301 301 301 301 301 301 300 300
316 317 317 317 317 316 316 316 315 315 315 315 315 315 315 315 314 313 312 312 312 312 311 311 310 310 310 310 309 309 309 309 310 309 308 308 307 307 308 307 307 307 306 306 305 305 305 304 304 304 303 303 303 302 302 302 302 302 301 302 301 301 300 301 301 301 301 301 300
315 316 316 317 316 316 316 316 315 315 315 314 314 314 315 315 314 313 312 312 312 312 312 311 311 310 310 309 309 309 309 309 309 309 308 307 307 307 307 307 307 307 306 306 305 305 304 304 304 303 303 303 302 302 302 302 302 301 301 301 301 301 301 300 301 301 300 300 300
314 315 316 316 316 316 315 315 315 314 314 314 313 313 314 314 314 313 312 312 312 312 312 312 311 311 310 309 309 308 308 309 309 308 308 307 307 307 307 307 307 307 306 306 305 305 304 304 304 303 303 303 303 302 302 302 302 302 301 300 301 301 300 299 300 300 300 300 299
313 315 316 316 316 315 315 315 314 314 314 314 313 313 313 313 313 313 313 312 312 312 312 312 311 310 310 309 308 308 308 308 308 308 308 308 307 307 307 307 307 306 306 306 305 305 304 304 304 303 303 303 303 302 302 302 302 301 300 300 300 300 300 300 301 300 300 299 299
312 314 315 315 315 315 314 314 314 314 314 313 313 313 313 313 312 313 312 312 312 312 311 311 311 310 310 309 308 308 308 308 308 308 308 308 307 306 306 307 306 306 306 306 305 304 304 304 304 303 303 302 302 302 302 302 301 301 300 300 300 300 300 301 301 301 300 300 299
311 312 314 315 314 314 314 314 314 314 313 313 313 313 313 314 313 313 313 312 312 312 311 311 311 311 310 309 309 308 308 308 307 307 307 307 307 307 306 306 306 306 306 306 305 305 304 304 303 302 302 302 302 301 301 302 302 301 300 300 300 300 300 301 301 300 300 300 299
310 311 312 314 314 314 314 313 313 313 313 313 312 312 313 313 313 313 312 312 311 311 311 311 311 311 310 309 309 308 308 308 307 307 307 307 307 307 306 307 306 306 306 306 305 305 304 304 302 302 301 302 301 301 301 301 302 301 300 300 300 299 300 300 300 300 300 300 300
309 310 311 313 313 313 313 312 312 313 312 312 312 312 312 312 312 312 312 311 311 311 311 311 311 311 310 310 309 308 308 307 307 307 307 307 307 307 307 307 307 306 306 306 305 305 304 303 302 301 301 301 301 301 301 301 302 301 300 300 300 300 300 300 300 300 300 300 300
309 309 310 311 312 313 313 312 312 312 312 311 312 312 312 312 312 311 311 311 311 311 311 311 311 311 311 310 309 309 308 308 307 307 307 307 307 306 307 307 306 306 306 306 305 305 304 303 302 301 301 300 301 301 301 301 302 301 300 300 300 300 300 300 300 300 300 300 300
308 308 309 310 311 312 313 312 312 312 311 311 311 311 312 311 312 311 311 311 311 311 311 311 311 311 311 310 309 309 308 308 307 307 307 307 307 307 307 307 307 306 306 306 305 305 304 303 302 301 301 300 301 301 301 302 302 301 301 300 300 300 300 300 301 301 301 300 300
307 308 309 310 310 312 313 313 312 311 311 310 311 311 311 311 311 311 311 310 311 311 311 311 311 311 311 311 310 309 308 308 307 307 306 307 307 307 307 307 307 307 306 306 305 304 303 303 302 302 301 301 300 301 301 302 302 302 301 301 301 300 301 301 301 301 301 300 300
307 307 308 309 310 311 312 313 312 312 311 311 311 311 311 311 310 310 310 310 310 311 311 311 311 311 311 311 310 309 309 308 307 307 307 306 306 306 307 306 307 307 306 305 305 304 304 303 302 302 301 301 301 301 302 302 302 302 302 301 301 301 301 301 302 301 301 301 300
306 307 308 308 309 309 310 311 312 312 311 311 311 310 310 310 310 309 310 310 310 310 310 310 311 311 310 311 310 309 309 308 307 307 307 307 306 307 306 306 307 307 306 305 305 304 304 303 303 302 302 301 302 302 302 302 302 302 302 302 301 301 301 302 302 302 301 301 301
306 306 307 307 308 309 309 310 310 311 311 311 311 310 310 310 309 309 309 309 309 309 309 309 310 310 310 310 310 309 309 308 308 307 307 307 307 307 306 306 307 307 306 305 305 304 304 303 303 302 302 302 302 302 303 303 303 302 302 302 301 301 302 302 302 302 302 301 301
305 306 306 307 308 308 309 309 310 310 310 311 311 310 310 310 309 309 309 309 309 309 309 309 309 310 310 310 309 309 309 308 308 307 307 307 307 307 307 306 307 307 306 306 305 305 304 303 303 302 302 302 302 303 303 303 303 303 302 302 302 302 301 302 302 302 302 302 302
305 306 306 306 307 308 308 309 310 310 310 310 310 310 310 310 309 309 308 308 309 309 309 309 309 309 309 309 309 309 309 309 308 307 307 307 307 307 307 307 306 307 306 306 305 305 304 304 303 303 302 302 303 303 303 303 303 303 302 302 302 302 302 302 302 302 302 302 302
305 306 306 307 307 307 308 308 309 310 310 310 309 309 309 309 309 309 308 308 308 308 308 308 309 309 309 308 308 308 308 309 308 307 307 307 307 307 307 307 307 306 307 306 305 305 304 304 303 303 303 303 303 303 303 303 303 303 303 303 302 302 302 302 302 302 302 302 302
305 306 306 307 307 307 308 308 309 309 310 310 309 309 309 309 309 308 308 308 307 307 307 308 308 308 308 308 308 308 308 308 307 307 307 307 307 307 307 307 307 306 306 306 305 305 304 304 304 303 303 303 303 303 303 304 303 303 303 302 302 302 302 302 303 302 302 302 302
304 306 307 307 307 307 308 308 308 309 309 310 310 309 308 308 308 308 308 308 308 307 307 308 308 308 308 308 308 308 308 307 307 307 307 307 307 307 307 307 307 306 306 306 305 305 305 304 304 303 303 303 303 303 303 303 303 303 303 302 302 302 302 302 302 302 303 303 302
304 305 306 307 307 307 307 308 308 308 309 310 310 309 309 308 308 308 307 307 307 307 307 308 308 308 308 308 308 308 308 307 306 306 306 306 307 307 307 307 306 306 306 306 306 306 305 304 304 304 303 303 303 303 303 303 303 303 303 302 302 302 302 302 302 302 302 302 303
303 305 306 306 307 307 307 308 308 308 309 309 310 310 309 308 308 308 307 307 307 307 307 307 307 308 308 308 309 308 308 307 307 306 306 306 306 306 307 307 307 307 307 307 309 310 309 307 306 305 304 304 303 303 303 303 303 303 302 302 302 302 302 302 302 302 302 302 302
303 304 305 306 306 307 307 307 307 308 308 309 310 310 310 309 308 307 307 307 307 307 307 307 307 308 308 308 308 308 308 308 307 306 306 306 306 306 306 307 307 307 307 309 311 312 311 310 309 307 305 304 303 303 303 303 303 303 303 302 302 302 302 302 302 301 302 302 302
302 303 305 305 306 306 306 307 307 308 308 309 309 310 310 310 308 308 307 307 307 307 306 306 307 308 308 308 308 308 308 308 307 307 306 306 306 306 306 306 306 307 307 310 312 312 312 312 311 309 307 304 303 303 302 302 302 303 302 302 302 302 302 302 302 302 302 302 302
302 303 304 305 305 306 306 307 307 307 308 308 309 310 310 310 309 308 307 307 307 307 306 306 306 307 308 307 307 307 308 308 307 307 307 306 306 306 306 306 306 307 309 311 312 313 313 312 312 311 309 306 304 303 303 302 302 303 302 302 302 302 302 302 302 302 302 302 302
302 302 303 304 304 305 306 306 307 307 308 308 309 309 310 310 309 308 307 307 307 306 306 306 306 307 307 306 306 307 307 308 308 307 307 306 306 306 306 306 306 307 310 313 313 313 313 313 313 312 311 308 305 303 303 303 303 303 302 302 302 302 302 302 302 302 302 302 302
302 302 302 304 304 305 305 306 307 307 308 308 309 309 309 309 309 308 307 307 306 306 306 306 306 306 306 306 306 306 307 308 308 308 307 306 306 306 306 306 306 307 310 313 313 313 313 313 313 313 311 310 306 304 303 303 303 302 302 302 302 301 301 301 301 301 301 301 301
302 302 302 303 304 304 305 306 306 307 307 308 308 308 309 309 308 308 307 306 306 307 307 306 305 305 305 306 306 306 306 307 308 308 307 306 307 306 306 306 305 307 309 313 314 314 314 314 313 312 311 310 307 304 303 303 303 302 302 301 301 301 301 301 300 300 300 300 300
302 302 302 303 304 304 305 305 306 307 307 307 308 308 308 308 309 308 307 307 307 306 306 306 305 305 305 305 305 306 306 307 307 307 307 306 307 306 306 305 305 306 309 312 314 314 314 314 313 312 312 311 307 304 302 302 302 302 301 301 301 300 300 300 300 299 299 299 299
302 302 302 303 304 304 305 305 305 306 306 307 307 307 308 308 308 308 308 307 307 306 306 305 305 304 305 305 305 305 305 306 307 307 308 307 307 306 306 306 305 307 310 312 314 314 314 314 313 312 312 311 307 304 302 302 302 301 301 301 300 300 300 300 300 299 299 299 299
302 302 303 303 304 304 305 305 305 305 305 306 307 307 307 308 308 308 308 307 307 306 306 305 305 305 305 305 305 305 305 307 307 307 307 307 307 306 306 305 305 307 310 313 314 314 314 314 313 313 312 310 306 303 302 302 301 301 300 300 300 300 300 300 300 299 299 299 299
302 303 303 304 304 304 305 305 305 304 305 305 306 306 307 307 308 308 308 307 307 307 306 306 305 305 305 305 305 305 306 306 306 306 306 306 306 306 306 305 305 307 311 313 314 314 314 314 313 313 311 309 304 302 301 301 300 300 299 299 299 300 300 300 300 300 300 300 300
303 303 303 304 304 304 304 304 304 304 304 304 304 305 306 307 307 308 308 308 307 306 306 306 305 305 305 305 305 305 305 305 306 306 306 306 306 305 305 305 304 307 311 313 314 314 314 314 313 312 310 307 302 301 301 300 300 299 299 298 299 299 300 300 301 301 301 301 301
303 303 304 304 305 304 304 304 303 303 303 303 304 305 305 306 307 307 307 308 307 307 306 305 305 305 304 304 305 305 305 306 305 306 306 307 306 305 305 304 304 306 310 313 314 314 314 313 313 312 309 304 301 300 300 300 299 299 298 298 298 299 300 301 301 301 301 301 302
303 304 305 305 305 304 304 303 303 303 302 302 303 304 305 306 306 307 307 308 307 306 306 305 305 304 304 305 304 305 305 305 306 306 306 306 306 305 304 304 303 305 309 313 314 314 314 313 313 311 308 302 300 299 299 299 299 298 298 298 299 299 300 301 302 302 302 302 305
304 305 305 305 304 303 303 302 302 302 302 302 302 303 305 305 306 306 307 307 306 306 306 305 305 305 305 305 305 305 305 305 306 306 306 305 306 306 305 303 303 305 308 312 313 314 313 313 312 311 308 302 300 299 299 298 298 298 298 298 299 299 300 301 301 302 302 303 307
305 305 305 305 304 303 302 301 301 302 302 302 302 302 304 305 305 306 307 307 306 306 306 306 305 305 305 306 305 305 304 304 305 305 306 305 306 307 307 304 303 305 308 312 313 313 313 313 312 310 307 302 300 299 299 299 298 298 298 298 298 299 299 300 300 301 301 302 305
305 305 305 305 304 303 302 301 301 301 302 301 301 302 303 305 306 306 306 306 306 306 306 305 305 305 305 306 305 305 304 304 304 305 305 306 306 307 307 304 303 304 307 310 312 313 313 312 311 310 307 302 300 299 299 299 298 298 298 298 298 298 298 298 299 299 300 300 301
Wind_Speed
10 10 10 9 8 7 7 6 6 6 6 6 6 6 6 6 6 6 6 7 7 7 7 7 7 7 8 11 13 13 13 13 13 13 13 13 12 12 12 12 11 11 11 10 10 10 10 10 8 7 6 6 6 6 6 5 6 7 7 6 6 6 7 7 7 7 6 5 4
11 11 11 10 9 7 6 6 6 6 6 6 6 6 6 6 6 6 6 7 7 7 7 6 7 8 9 12 13 14 14 14 14 14 14 14 13 13 12 12 12 12 12 11 11 10 9 10 9 7 6 6 6 6 6 6 7 7 8 8 6 6 6 6 7 7 7 6 5
10 10 10 10 9 8 7 6 6 6 7 6 6 6 5 5 5 6 6 6 6 7 6 6 7 8 10 12 12 13 13 14 14 14 14 13 13 13 13 12 13 13 12 12 11 10 9 10 9 8 7 7 7 7 7 6 6 7 7 8 6 5 5 5 6 6 5 5 5
10 9 10 10 10 10 9 7 7 7 7 6 6 6 6 5 5 5 6 6 6 6 6 6 7 8 10 11 12 13 13 14 14 14 14 13 13 13 13 13 13 13 13 12 12 11 11 10 8 7 7 8 8 8 7 7 7 6 6 6 5 5 5 5 5 5 5 5 5
11 9 9 9 11 11 10 9 8 8 7 6 6 6 5 5 5 5 5 5 6 7 7 8 8 8 9 11 13 14 14 15 15 14 14 14 14 14 13 14 14 14 13 13 13 12 12 11 8 6 6 7 7 7 7 7 8 7 5 5 5 5 5 5 5 5 4 4 4
12 9 9 9 10 10 9 9 9 8 7 6 6 7 7 5 5 5 6 7 6 7 8 9 8 8 9 11 13 14 14 14 14 13 13 13 13 13 14 14 14 14 13 13 13 13 12 11 8 6 6 6 6 6 7 9 8 7 6 5 5 5 5 5 5 5 4 4 4
15 11 9 10 10 10 9 9 9 8 7 7 8 8 8 8 7 7 8 7 6 7 7 8 8 9 10 11 12 13 14 13 13 13 13 13 13 13 14 14 14 14 14 13 13 13 12 11 8 7 7 7 6 7 8 9 8 8 7 6 5 5 5 5 5 5 5 6 6
17 14 11 10 10 10 10 10 9 8 8 7 8 9 10 10 9 9 9 8 7 7 7 7 8 9 11 12 12 13 14 14 13 13 13 13 14 14 14 14 14 14 14 14 14 13 12 10 8 7 8 7 6 7 9 10 10 9 8 7 6 5 5 4 5 5 6 7 7
17 15 12 10 10 10 10 10 10 9 9 9 9 10 10 10 10 10 9 8 7 7 7 7 9 10 12 13 13 14 14 14 14 14 14 13 14 14 14 13 14 14 14 14 14 14 13 10 8 8 8 7 7 8 10 11 11 10 9 7 6 6 5 5 6 6 7 7 7
17 17 14 11 9 9 9 9 9 10 10 10 10 10 10 10 10 9 8 7 7 7 7 8 9 11 12 13 13 13 13 13 14 14 14 14 14 14 14 13 14 14 14 13 14 14 13 10 9 8 8 8 9 10 11 12 12 11 9 7 7 7 7 6 6 7 7 7 7
18 18 17 12 9 8 8 8 8 9 9 9 10 10 10 10 9 8 7 6 7 8 9 8 10 11 12 13 13 13 12 12 12 13 14 14 14 14 14 14 15 15 14 14 13 13 12 10 10 10 10 9 10 10 11 12 12 12 10 7 7 8 8 7 7 7 6 7 7
19 19 18 16 10 8 8 7 7 7 8 9 9 9 9 9 9 8 7 7 8 9 9 9 10 11 12 11 12 12 12 12 12 13 13 14 14 14 14 14 15 15 15 14 14 12 11 11 11 11 12 11 10 10 11 13 13 12 11 9 9 9 9 8 8 7 6 6 7
19 19 19 19 12 8 7 7 6 6 7 8 8 8 9 8 9 8 8 8 9 9 8 8 10 11 11 11 11 11 11 12 12 12 12 13 14 14 14 14 15 15 15 14 14 13 12 12 12 13 13 13 11 11 12 13 13 13 12 11 10 9 9 9 9 7 7 6 6
19 19 20 20 15 9 6 6 6 6 6 7 8 8 8 8 8 8 8 8 9 9 9 8 9 9 10 11 11 12 12 12 12 12 12 13 14 14 15 14 15 15 14 14 14 14 13 13 13 14 14 13 12 12 12 13 13 13 13 12 11 11 10 10 9 8 8 7 7
18 19 20 20 18 12 6 5 5 5 6 7 7 7 7 7 7 7 8 8 8 8 8 8 8 9 10 12 12 12 12 12 12 12 12 13 14 15 15 15 15 15 14 14 13 14 14 14 14 14 14 13 13 13 13 13 13 13 12 12 12 11 10 10 10 9 9 8 8
17 18 19 19 19 15 10 6 5 5 6 6 6 7 7 7 7 7 7 8 8 8 8 9 8 8 9 11 12 13 13 12 13 13 13 13 14 15 15 16 16 15 15 14 13 13 13 14 13 13 13 13 13 13 13 13 13 12 12 12 11 11 10 10 10 10 9 9 8
15 17 18 18 19 18 15 10 7 6 6 7 7 7 7 7 6 6 7 8 7 7 8 9 8 8 9 10 11 12 12 12 13 13 14 14 15 15 16 16 16 16 15 14 14 13 13 13 12 12 12 12 12 12 13 13 13 12 12 11 10 10 10 10 10 10 9 9 9
14 15 16 17 18 19 19 17 13 9 8 8 8 7 7 7 6 6 7 7 7 8 8 9 8 8 9 10 11 11 11 12 13 14 14 15 15 15 15 16 16 16 15 14 14 14 14 13 12 12 11 11 11 12 12 13 12 12 11 11 10 10 9 9 9 9 9 9 9
12 13 14 15 17 18 19 20 18 14 11 9 8 8 8 7 7 7 7 7 8 8 9 10 9 8 9 10 11 11 11 12 13 14 15 14 14 14 14 15 15 15 15 14 14 14 14 13 13 12 11 11 11 11 11 12 12 11 11 11 10 9 9 9 9 8 8 8 8
11 12 12 13 15 16 18 19 20 19 16 12 10 9 9 9 8 8 8 8 8 9 9 10 9 9 9 10 11 11 11 11 13 14 14 14 13 13 14 14 14 14 14 14 13 13 13 13 13 13 12 12 12 12 12 12 11 11 11 10 10 9 9 9 8 8 8 8 8
11 11 11 12 13 15 16 18 19 20 19 17 13 11 10 9 9 9 9 9 9 9 9 10 10 9 9 10 11 11 11 10 12 13 14 14 14 14 14 14 14 14 14 14 13 13 13 13 13 13 13 13 12 12 12 12 12 11 11 9 9 9 9 9 8 8 8 8 8
11 10 10 11 11 13 14 16 18 19 20 20 17 13 11 10 9 9 9 8 8 8 9 9 10 10 9 10 10 10 10 9 10 11 13 13 13 14 14 14 14 14 14 14 14 14 14 14 13 13 13 13 12 12 12 12 12 12 11 10 9 9 9 9 8 8 8 8 8
11 10 10 10 10 11 13 14 16 17 19 20 19 17 13 11 10 9 9 8 8 8 8 9 9 10 10 10 10 10 10 9 9 10 12 13 13 14 14 13 14 14 14 14 14 14 14 14 13 13 13 12 12 12 13 12 12 12 11 11 10 10 9 9 8 8 8 8 8
12 10 9 8 9 10 11 12 14 16 17 19 19 19 17 13 11 10 9 9 9 9 9 9 9 9 9 10 10 10 10 10 10 11 12 12 13 13 14 13 14 14 14 13 14 15 14 13 12 12 12 12 12 12 12 12 12 11 11 11 11 10 9 9 8 8 8 8 7
12 11 10 9 9 10 10 11 13 14 15 17 18 19 18 16 13 11 10 9 9 9 9 9 9 9 9 10 10 10 11 10 11 11 12 12 12 13 13 13 13 13 13 13 18 20 19 16 13 12 11 11 11 11 11 11 12 12 11 11 11 10 9 9 9 8 8 8 7
12 11 10 9 9 10 10 11 12 13 14 15 16 18 18 18 15 13 11 10 10 10 10 10 10 10 10 10 10 10 10 10 11 12 12 12 12 13 13 13 12 12 12 15 22 24 24 21 18 15 12 11 11 11 11 11 11 12 11 11 11 10 10 9 9 8 8 8 7
12 11 10 9 9 10 10 10 10 11 13 14 15 16 17 18 16 14 13 12 11 10 10 9 10 10 10 10 11 11 11 10 10 11 12 12 13 14 14 13 12 12 13 18 24 26 26 25 23 20 16 12 11 11 11 11 11 12 12 11 10 10 10 10 10 9 8 7 7
12 11 10 10 10 10 10 9 10 11 12 13 13 14 15 17 17 16 14 13 12 11 10 8 8 8 8 9 10 11 12 11 10 11 11 12 13 14 15 13 12 13 15 22 25 27 27 26 25 23 20 14 11 11 11 11 11 11 11 10 10 10 10 10 9 9 8 8 7
13 12 11 10 10 10 10 10 10 10 11 12 12 13 14 15 16 16 15 14 14 12 10 7 6 7 7 9 10 11 12 12 11 11 11 11 13 14 15 14 13 15 18 25 26 27 28 27 27 26 23 19 12 9 9 9 9 9 9 9 9 9 9 9 8 8 8 8 8
14 13 11 10 10 10 10 10 10 10 10 10 11 12 13 13 15 15 15 15 14 13 11 7 7 7 9 10 10 11 12 12 12 11 12 12 13 14 15 15 14 15 19 26 27 28 28 28 27 27 25 22 15 10 8 8 9 9 9 8 9 9 9 9 9 8 8 8 8
14 13 12 10 10 10 10 10 10 10 9 9 10 11 12 12 13 14 14 13 13 13 12 10 8 9 10 10 10 11 12 12 12 13 13 13 14 15 15 15 14 15 19 26 28 29 29 28 28 27 26 24 16 12 9 9 9 9 8 8 9 9 9 9 9 9 9 8 8
15 14 12 11 10 10 9 9 10 10 10 10 10 10 11 12 12 12 12 12 12 13 14 13 11 10 10 11 11 11 12 13 13 14 14 14 15 15 15 15 14 15 19 26 28 29 29 29 28 28 27 25 17 13 10 10 9 9 9 9 9 10 9 8 8 8 9 9 8
16 15 13 12 11 10 9 9 9 10 10 11 10 10 10 11 11 11 11 11 11 12 14 15 13 11 11 11 11 12 12 13 14 15 15 15 15 15 15 14 13 15 19 26 28 29 29 29 28 28 27 25 17 13 11 10 9 8 8 8 9 9 9 9 8 8 9 9 8
16 15 14 13 12 11 10 10 10 10 10 11 11 11 10 10 10 10 10 10 10 11 12 14 14 12 11 11 11 12 12 13 14 15 15 15 16 16 15 14 12 15 21 26 28 29 29 29 28 28 27 25 16 12 10 10 9 8 8 8 8 9 9 9 9 8 8 9 8
17 16 14 14 14 14 13 12 11 10 10 11 11 11 10 10 10 10 10 9 9 10 11 13 14 12 11 10 11 12 13 13 14 15 15 16 16 16 16 15 12 16 22 27 29 29 29 29 28 28 26 21 14 10 10 10 9 9 9 9 9 9 9 9 8 8 8 8 8
18 16 15 15 15 15 15 14 13 11 10 10 10 10 10 9 9 9 9 9 9 9 11 13 14 13 12 11 12 12 13 14 14 15 16 16 16 16 16 15 13 17 23 28 29 30 30 29 29 28 25 17 11 9 9 9 9 9 9 9 9 9 9 8 8 8 8 7 7
17 16 15 15 16 16 16 15 13 12 11 9 9 9 10 10 10 9 8 8 8 9 10 12 13 13 13 12 12 13 13 13 14 15 16 17 17 17 16 15 14 17 23 28 29 30 30 30 29 27 23 14 10 9 9 8 7 8 8 8 8 8 8 8 7 7 7 7 6
17 16 15 15 16 17 16 14 13 13 12 11 8 8 9 10 9 9 8 8 8 8 10 11 13 13 13 12 12 13 13 13 14 15 16 17 17 17 17 16 14 16 21 27 30 30 30 30 30 27 21 13 10 9 8 8 7 7 7 7 7 7 7 6 6 6 7 7 8
17 16 16 16 17 17 16 14 13 13 13 12 9 7 7 8 9 9 9 9 8 8 9 10 12 12 13 13 12 13 13 14 15 16 16 17 17 18 17 16 15 16 19 26 29 31 30 30 30 27 22 13 11 9 8 8 8 7 7 7 6 6 7 6 5 5 6 8 11
18 16 16 16 17 17 15 14 13 13 12 12 11 8 7 8 9 9 9 9 8 8 8 9 11 12 13 13 13 13 13 14 14 15 16 17 18 19 19 17 15 16 19 26 29 31 31 31 30 27 22 13 10 9 8 8 8 8 7 6 6 6 6 6 5 5 6 7 9
18 17 17 17 18 17 15 14 14 13 12 11 12 9 7 8 9 10 10 8 8 8 7 7 9 11 12 12 11 12 13 14 14 14 16 17 18 19 20 17 16 16 19 24 28 30 31 31 30 28 22 14 10 8 7 7 8 8 8 7 6 6 5 5 5 5 5 6 6
Wind_Direction
235 224 220 220 221 222 223 224 224 224 224 225 222 214 205 200 203 204 203 200 200 199 198 196 195 194 193 192 193 195 195 195 194 194 194 193 191 188 185 182 181 180 179 179 176 173 169 166 162 162 163 164 166 167 168 168 163 161 162 164 167 168 167 166 169 171 170 168 165
244 226 218 217 218 220 221 223 223 223 224 224 224 219 211 203 204 205 204 203 201 199 197 196 194 192 192 192 193 194 194 194 193 193 194 194 192 188 184 181 180 179 178 177 175 173 170 167 164 163 163 164 165 167 170 171 163 161 162 165 167 167 167 167 171 171 170 167 165
255 229 216 214 215 216 218 220 220 221 222 225 226 223 217 209 206 206 205 204 201 198 195 195 193 191 191 191 193 194 194 194 193 193 193 194 192 188 184 181 180 179 178 177 176 174 172 169 166 165 165 166 167 169 170 170 164 162 163 166 167 167 167 170 172 171 169 167 166
267 236 218 213 214 215 216 217 217 218 219 222 225 227 224 216 210 208 207 205 201 199 196 194 192 191 191 190 192 194 195 195 193 192 193 193 191 189 185 181 179 179 178 177 175 173 171 169 168 167 167 166 166 168 170 170 166 164 165 167 166 166 167 169 170 171 171 169 168
282 248 222 214 213 214 216 216 216 215 216 218 222 226 227 222 215 210 207 206 204 201 197 192 190 190 190 190 192 194 195 196 194 193 192 193 192 189 185 181 180 179 178 176 174 172 170 169 168 168 168 167 168 170 169 166 165 164 165 166 167 166 167 166 168 170 171 171 170
298 268 233 218 214 214 216 217 216 215 215 214 218 223 226 224 217 211 209 209 207 202 197 192 189 188 188 190 192 194 195 196 195 193 192 192 191 189 186 183 181 179 178 176 174 171 169 168 168 168 168 167 168 169 167 164 164 164 165 167 169 167 165 166 168 168 169 170 170
308 288 253 227 218 215 215 216 216 216 215 215 218 221 223 224 219 214 210 209 207 202 197 193 188 187 187 189 192 194 195 196 196 193 191 190 190 188 186 183 181 179 178 176 173 171 170 169 167 168 169 169 169 169 168 165 165 166 167 170 170 167 165 166 166 165 167 168 170
314 301 275 240 225 218 215 214 214 215 216 217 219 221 223 224 221 217 213 210 208 205 200 195 189 186 186 188 192 194 195 195 195 194 191 190 189 188 185 182 180 179 178 176 173 172 171 169 169 169 170 171 171 171 169 166 166 167 169 170 170 168 166 165 164 164 165 167 169
319 311 295 260 237 223 215 212 212 213 215 219 221 222 223 224 222 219 216 213 210 206 201 197 190 188 187 189 192 194 194 195 195 193 192 190 189 187 184 182 180 180 179 177 174 172 171 170 170 171 171 172 173 172 170 166 165 166 169 170 169 168 166 164 163 163 164 165 168
321 317 308 282 252 231 219 212 212 213 215 219 222 224 226 227 225 222 218 215 211 208 204 198 191 189 189 191 192 194 194 194 194 193 192 190 188 186 184 182 181 180 179 177 175 173 172 171 171 172 172 172 172 171 169 165 164 166 168 171 168 167 167 166 164 163 163 165 167
321 320 315 300 268 241 224 214 214 214 216 220 223 226 228 230 229 227 223 216 213 210 207 199 191 189 190 192 193 194 194 194 194 193 191 189 188 186 183 182 180 179 178 177 175 174 174 174 172 171 171 171 171 170 168 166 164 165 167 170 167 166 166 169 167 164 163 163 164
322 321 318 311 285 253 229 217 216 217 218 221 224 227 229 232 232 231 227 220 216 214 210 201 193 190 191 193 194 194 194 193 193 192 191 189 187 186 184 182 180 179 178 176 175 175 175 176 173 171 171 170 171 171 169 166 165 165 167 169 167 166 167 169 168 165 163 161 160
322 321 320 317 301 273 238 223 220 219 220 222 225 228 230 233 233 233 230 225 220 217 213 205 196 191 191 192 193 193 193 193 192 192 191 189 187 185 183 182 180 179 178 177 177 176 176 176 173 171 170 170 171 172 170 167 165 166 167 169 169 168 168 169 168 166 163 160 161
322 321 320 320 313 295 256 234 228 224 223 225 227 229 232 234 234 234 233 230 225 221 217 210 200 193 191 191 192 192 192 192 192 191 190 189 187 185 183 182 181 179 178 178 178 177 176 176 174 172 171 170 171 171 171 168 167 167 168 169 169 169 168 168 166 165 164 164 166
321 320 320 320 319 312 286 253 241 233 228 227 229 230 233 235 236 235 234 233 229 225 220 215 205 196 192 191 191 191 191 191 190 190 189 188 187 185 184 183 181 180 179 179 178 178 177 177 175 173 171 170 170 170 170 169 169 169 169 170 169 168 167 166 165 165 166 167 168
319 319 319 320 320 319 311 285 262 246 236 233 230 230 232 234 235 235 235 234 231 227 223 219 210 199 192 191 191 191 191 191 190 189 189 189 187 186 185 183 182 180 179 178 178 178 178 178 176 173 171 169 169 169 169 170 169 169 169 169 167 166 165 165 164 165 167 168 169
316 316 317 317 318 319 318 308 287 263 246 239 234 232 231 231 232 233 233 233 231 228 225 222 213 201 192 191 191 191 191 191 191 191 190 190 188 186 185 184 182 181 179 177 177 177 178 178 176 173 171 168 167 167 168 169 169 169 168 167 166 165 165 165 165 165 166 167 169
312 313 313 313 314 315 316 315 305 286 260 244 240 236 232 229 228 229 230 231 229 227 225 223 217 204 193 190 191 192 191 192 192 192 192 191 189 187 185 184 183 181 179 178 177 176 176 176 175 172 169 167 165 165 166 167 168 168 168 167 166 165 165 165 165 165 166 168 170
306 308 309 309 310 311 312 314 311 303 285 258 246 240 235 230 228 227 227 228 227 225 224 223 219 208 196 190 191 192 192 192 192 193 192 190 188 186 184 183 182 180 179 178 177 176 175 175 173 171 168 166 164 163 164 166 167 168 167 166 166 166 166 166 166 166 167 169 171
300 302 304 305 306 307 308 309 311 309 303 286 263 246 238 233 229 227 226 226 224 223 222 222 219 210 198 190 191 193 193 192 192 192 191 189 186 184 183 182 181 179 178 178 177 176 175 174 172 170 168 166 163 162 162 164 165 166 167 167 167 167 168 168 168 168 169 170 171
293 294 297 300 302 303 304 305 307 308 307 302 285 264 244 235 231 229 227 225 222 220 220 221 219 211 200 192 191 193 194 192 191 191 190 187 185 183 181 180 179 178 178 178 177 176 174 174 172 171 169 167 164 162 162 163 164 165 167 167 169 169 169 169 169 170 171 172 173
289 288 290 294 296 299 301 302 304 305 306 305 298 283 261 241 234 231 228 226 221 218 217 218 218 211 201 191 190 191 192 192 190 190 190 187 184 182 180 179 178 177 177 178 177 176 175 174 173 171 170 168 166 164 163 162 164 165 166 167 168 169 170 171 171 172 173 174 175
287 284 284 287 291 294 297 299 300 302 303 304 302 294 280 257 243 234 229 226 222 217 215 215 217 211 202 192 188 188 189 189 189 190 189 186 183 181 179 178 177 177 178 178 177 175 174 174 173 172 171 169 167 165 164 163 163 164 165 166 167 169 171 172 173 173 174 175 176
286 282 279 280 285 289 293 296 297 298 299 300 301 298 291 275 257 243 234 229 225 220 216 214 215 210 203 193 188 186 187 187 188 189 189 186 181 179 178 178 178 179 179 179 178 177 175 173 172 172 171 170 168 167 166 165 164 164 165 166 167 169 171 173 173 174 175 176 177
285 280 276 275 278 282 286 291 293 295 296 297 299 298 295 286 271 255 242 235 231 225 220 215 213 210 204 196 190 188 187 186 186 187 187 184 179 177 177 178 180 181 182 182 181 180 178 175 173 171 171 170 169 168 167 166 166 166 166 166 167 168 170 173 174 175 176 176 177
285 280 275 271 271 273 277 282 287 290 293 294 296 296 295 290 279 265 252 244 239 232 225 217 212 209 205 199 193 190 189 188 187 187 186 183 178 177 177 179 181 182 184 185 184 182 180 177 174 172 170 169 169 169 169 169 168 167 167 167 167 168 170 173 175 176 177 177 178
284 279 274 269 266 266 267 271 277 283 287 291 293 294 294 292 283 272 259 250 246 241 233 221 214 209 206 202 196 193 191 191 190 188 186 182 178 177 178 180 181 183 185 186 185 184 182 179 176 173 171 169 170 170 170 170 169 168 168 168 168 169 170 173 174 176 177 179 179
283 279 273 269 264 261 260 262 267 273 279 285 289 291 292 291 285 276 265 254 251 247 241 228 215 208 205 204 199 195 192 190 190 190 188 183 179 178 179 181 182 184 186 187 186 185 183 181 177 175 173 170 170 170 169 168 169 169 169 169 169 169 170 172 174 175 176 178 180
283 279 275 272 267 262 257 256 258 263 269 276 282 286 289 289 285 278 268 258 253 250 247 235 218 207 204 204 200 197 193 191 191 190 189 185 181 181 181 182 183 185 186 187 186 185 184 182 179 177 174 171 170 169 169 168 168 168 169 169 169 169 170 171 172 173 174 176 179
283 280 277 274 272 266 259 252 252 254 259 266 275 280 284 285 283 277 269 259 254 252 250 242 222 209 204 202 200 197 195 192 191 191 190 187 184 184 184 183 183 185 187 187 187 186 185 183 181 178 175 172 169 168 167 168 167 167 168 168 169 169 169 169 170 170 172 174 177
284 280 277 274 273 269 261 252 249 249 251 256 264 271 276 279 278 274 268 261 256 255 254 249 229 212 204 201 200 198 196 192 191 191 191 189 187 186 186 185 184 186 188 188 187 186 185 184 182 179 176 173 170 168 168 167 167 167 167 168 168 169 168 168 169 170 172 173 176
284 281 277 273 271 267 262 255 249 246 246 248 254 260 266 270 271 269 265 260 257 257 257 255 239 221 208 203 202 200 196 192 191 191 192 190 189 188 187 187 185 187 189 189 188 187 185 184 182 179 176 173 171 168 167 165 165 165 165 165 166 167 168 168 170 172 174 176 178
285 282 279 276 272 269 266 264 254 246 242 242 245 250 256 261 264 264 261 256 253 254 256 256 247 231 215 206 205 202 198 194 191 191 191 191 189 188 188 188 187 189 190 190 188 186 185 184 182 179 176 173 170 167 164 163 163 163 164 164 166 167 167 167 171 175 178 181 183
286 284 283 284 281 278 275 273 262 249 239 235 238 241 245 250 255 256 255 251 248 249 252 255 250 239 224 211 208 204 201 196 191 190 190 190 188 188 188 189 189 190 191 190 188 186 185 183 181 178 175 172 169 165 162 161 161 162 162 163 165 167 169 170 173 176 180 184 185
288 287 288 291 290 288 285 282 274 259 242 232 233 235 236 238 243 246 248 248 246 247 250 254 252 244 231 217 211 206 202 197 192 189 189 189 188 188 188 189 189 190 191 190 188 186 184 182 179 177 174 170 166 162 160 160 160 161 162 162 165 168 171 172 175 179 182 184 184
291 291 294 296 295 293 291 288 285 275 259 238 233 230 229 228 231 235 239 243 245 247 249 252 252 246 236 222 215 209 204 198 193 190 189 188 188 188 188 189 189 190 190 190 187 185 183 181 178 175 171 166 162 159 159 159 160 161 162 162 166 170 173 174 177 180 181 181 178
294 296 298 299 296 293 291 288 289 287 280 262 242 229 224 222 223 224 227 230 237 243 247 250 251 246 238 226 218 212 206 200 193 190 189 189 188 188 188 188 188 189 189 188 185 183 181 179 176 173 168 162 158 157 158 158 159 161 163 164 168 171 174 174 176 177 176 173 167
297 298 299 299 295 291 289 288 290 291 289 282 262 237 222 217 218 218 218 218 226 235 242 248 249 246 239 229 221 214 207 201 195 191 189 189 188 188 187 187 187 189 188 187 184 182 180 178 175 171 166 158 158 157 157 156 158 161 164 166 169 172 173 173 174 172 170 167 164
300 301 301 298 293 290 289 290 292 292 290 288 277 253 227 214 213 213 212 211 216 225 235 244 247 246 240 229 223 216 210 204 197 192 190 189 189 188 187 186 186 187 187 186 183 181 179 177 173 169 165 157 157 157 156 156 158 161 164 167 169 171 172 169 167 165 165 167 171
303 302 300 296 291 290 290 292 293 292 290 287 282 265 236 215 211 208 207 206 210 217 227 239 247 247 242 230 224 218 213 208 200 194 190 189 188 188 187 186 184 185 186 185 182 180 178 176 172 168 164 156 157 156 155 155 158 161 164 167 168 169 168 164 159 157 159 166 175
303 301 297 293 291 290 291 293 293 292 289 285 280 269 245 217 209 204 202 201 204 209 218 232 245 249 246 234 224 218 214 211 204 197 191 188 188 188 187 184 182 183 184 183 181 180 178 175 171 167 163 156 156 156 156 156 158 161 164 166 165 163 159 155 149 149 152 158 168